This is the latest recevied weather packets stored in our database for station/object EA2MKR. If no packets are shown the sender has not sent any weather packets the latest 10 day(s).
| Time | Temp. | Humidity | Pressure | Rain* | Wind** | Luminosity | Snow |
|---|---|---|---|---|---|---|---|
| 1777292814 | 20.56° C | 60% | 954.7 hPa | 0 mm | - | - | - |
| 1777292515 | 20.56° C | 62% | 954.8 hPa | 0 mm | - | - | - |
| 1777292285 | 20.56° C | 60% | 954.8 hPa | 0 mm | - | - | - |
| 1777291914 | 21.11° C | 61% | 954.8 hPa | 0 mm | - | - | - |
| 1777291614 | 21.11° C | 60% | 954.8 hPa | 0 mm | - | - | - |
| 1777291315 | 21.11° C | 58% | 954.8 hPa | 0 mm | - | - | - |
| 1777291014 | 21.11° C | 61% | 954.8 hPa | 0 mm | - | - | - |
| 1777290715 | 21.11° C | 59% | 954.8 hPa | 0 mm | - | - | - |
| 1777290414 | 21.67° C | 59% | 955 hPa | 0 mm | - | - | - |
| 1777290184 | 21.67° C | 56% | 955 hPa | 0 mm | - | - | - |
| 1777289813 | 22.22° C | 58% | 955.1 hPa | 0 mm | - | - | - |
| 1777289514 | 21.67° C | 62% | 955.2 hPa | 0 mm | - | - | - |
| 1777289284 | 21.67° C | 61% | 955.2 hPa | 0 mm | - | - | - |
| 1777288913 | 21.11° C | 60% | 955.2 hPa | 0 mm | - | - | - |
| 1777288614 | 21.11° C | 63% | 955.3 hPa | 0 mm | - | - | - |
| 1777288384 | 21.11° C | 62% | 955.3 hPa | 0 mm | - | - | - |
| 1777288004 | 21.11° C | 65% | 955.4 hPa | 0 mm | - | - | - |
| 1777287694 | 20.56° C | 65% | 955.4 hPa | 0 mm | - | - | - |
| 1777287394 | 20.56° C | 65% | 955.5 hPa | 0 mm | - | - | - |
| 1777287091 | 20° C | 66% | 955.4 hPa | 0 mm | - | - | - |
| 1777286792 | 19.44° C | 66% | 955.5 hPa | 0 mm | - | - | - |
| 1777286492 | 19.44° C | 64% | 955.6 hPa | 0 mm | - | - | - |
| 1777286191 | 19.44° C | 72% | 955.6 hPa | 0 mm | - | - | - |
| 1777285891 | 18.89° C | 73% | 955.6 hPa | 0 mm | - | - | - |
| 1777285591 | 18.89° C | 75% | 955.7 hPa | 0 mm | - | - | - |
* Rain latest hour (hover to see other rain measurements)
** Current wind speed in m/s (hover to see current wind gust speed)